Location: Kellogg
(38.0159°N, 90.0546°W)
Time: 17:52:16
(UTC+00:00)

S-56A Canister/Altair - Pass Details

Date: 18 September 2024
Orbit: 636 x 2487 km, 38.9° (Epoch: 04 October)

Event Time Altitude Azimuth Distance (km) Brightness Sun altitude
Rises 06:21:12 0° 281° (W) 4,427 - -49.8°
Reaches altitude 10° 06:24:19 10° 270° (W) 3,710 - -49.7°
Maximum altitude 06:32:28 29° 216° (SW) 3,045 - -49.4°
Drops below altitude 10° 06:43:05 10° 163° (SSE) 4,876 - -48.8°
Sets 06:48:00 0° 154° (SSE) 6,043 - -48.4°
